Location: David Mid Texas Observatory
(30.9664°N, 96.2113°W)
Time: 23:51:59
(UTC-06:00)

Tiangong 2 - Visible Passes

Search period start: 18 February 2018 00:00
Search period end: 28 February 2018 00:00
Orbit: 384 x 388 km, 42.8° (Epoch: 18 February)

Date Brightness Start Highest point End Pass type
(mag) Time Alt. Az. Time Alt. Az. Time Alt. Az.
18 Feb 3.5 19:19:31 10° NNW 19:20:55 12° NNE 19:21:24 12° NNE visible
19 Feb 3.5 19:56:35 10° NW 19:57:38 17° NNW 19:57:38 17° NNW visible
20 Feb 3.1 18:57:58 10° NNW 19:00:05 16° NNE 19:01:41 12° NE visible
21 Feb 1.7 19:35:10 10° NW 19:38:05 41° NNE 19:38:05 41° NNE visible
22 Feb 3.4 20:12:58 10° WNW 20:14:36 25° W 20:14:36 25° W visible
23 Feb 1.0 19:13:53 10° WNW 19:17:03 89° NNE 19:18:58 22° ESE visible
24 Feb 3.5 19:52:20 10° W 19:54:38 18° SW 19:55:49 15° SSW visible
25 Feb 2.4 18:52:47 10° WNW 18:55:47 39° SW 18:58:45 10° SSE visible
